カタログに戻る

DELTA 1 DEB

運用中SSO
NORAD 12234·DEBRIS·🇺🇸 United States

打ち上げ Mar 5, 1978 から Vandenberg Space Force Base

Loading…

次のパス (今後24時間)

TLE

最新Source: Space-Track

元期: Sep 13, 2026, 23:52 UTC

1 12234U 78026CB  26256.99492692  .00000185  00000-0  14658-3 0  9997
2 12234  99.2411 273.8967 0027946 217.3445 171.8331 14.03777648334366

AllMySatでDELTA 1 DEBをリアルタイム追跡

Download on the App Store